Content
SEND FEEDBACK

Daily
Averages
Monthly
Summary
Canada

BEACONSFIELD, QUEBEC


Home > North America > Canada > Quebec
Elevation: 118 feet     Latitude: 45 28N     Longitude: 073 45W

WEATHER
 
SELECT A DAY
Number of Records: 198,177;   Date Range: 1/1/95 - 7/30/14
 
SHARE

PRINT THIS DATA

[ ← Previous Day ]
WEATHER ALMANAC - APRIL 6, 2013
[ Next Day → ]
[ °C ]   °F
Weather ElementAverageHighLow
Temperature28.5 °F35.6 °F (4:00 pm)21.2 °F (5:00 am)
Dewpoint6.2 °F14 °F (10:00 pm)1.4 °F (1:00 pm)
Humidity37.6 %58 % (5:00 am)18 % (2:00 pm)
Barometer30.25 in30.32 in (10:00 am)30.07 in (1:00 am)
Wind Speed10.3 mph16.1 mph (9:00 am)
Wind Gust27.6 mph (1:00 am)
Weather ElementAverage
Visibility23.2 mi
Wind DirectionW (270 °)

Weather ElementTotal
Precipitation---
Heating Degree Days36.6 (Base 65)
Averaged from 27 records on April 6, 2013
WEATHER CONDITIONS BREAKOUT
WIND DIRECTION BREAKOUT
WEATHER BY HOUR - APRIL 6, 2013
[ °C ]   °F
Local TimeTemperatureDewpointHumidityBarometerVisibilityWind DirectionWind SpeedGust SpeedPrecipitationEventsConditions
1:00 AM26.6 °F5.0 °F40 %30.07 in15.0 miNW (320°)13.8 mph27.6 mphClear
2:00 AM25.0 °F6.0 °F29 %30.10 in15.0 miNNW (330°)12.7 mphScattered Clouds
2:00 AM24.8 °F5.0 °F43 %30.10 in15.0 miNNW (330°)11.5 mphClear
3:00 AM24.8 °F6.8 °F46 %30.12 in15.0 miNW (320°)10.4 mphPartly Cloudy
4:00 AM23.0 °F5.0 °F46 %30.16 in15.0 miNW (310°)15.0 mph21.9 mphClear
5:00 AM21.2 °F8.6 °F58 %30.19 in15.0 miNW (310°)9.2 mphClear
6:00 AM21.2 °F6.8 °F54 %30.24 in15.0 miWNW (300°)6.9 mphClear
7:00 AM21.2 °F5.0 °F50 %30.27 in30.0 miNW (310°)10.4 mphClear
8:00 AM23.0 °F6.0 °F33 %30.30 in28.0 miWNW (300°)11.5 mphScattered Clouds
8:00 AM23.0 °F5.0 °F46 %30.29 in30.0 miNW (310°)10.4 mphClear
9:00 AM24.8 °F3.2 °F40 %30.31 in30.0 miWNW (300°)16.1 mphClear
10:00 AM24.8 °F3.2 °F40 %30.32 in30.0 miWNW (290°)11.5 mph19.6 mphClear
11:00 AM26.6 °F3.2 °F37 %30.32 in30.0 miWest (260°)10.4 mphClear
12:00 PM28.4 °F3.2 °F34 %30.32 in30.0 miNW (310°)9.2 mphClear
1:00 PM28.4 °F1.4 °F31 %30.31 in30.0 miNW (320°)4.6 mphClear
2:00 PM32.0 °F4.0 °F18 %30.31 in28.0 miWSW (250°)10.4 mphClear
2:00 PM32.0 °F5.0 °F32 %30.31 in30.0 miWest (270°)10.4 mph18.4 mphPartly Cloudy
3:00 PM33.8 °F3.2 °F28 %30.30 in30.0 miWest (280°)11.5 mphClear
4:00 PM35.6 °F8.6 °F33 %30.28 in30.0 miWSW (240°)12.7 mph21.9 mphClear
5:00 PM35.6 °F5.0 °F28 %30.29 in30.0 miWSW (240°)15.0 mphClear
6:00 PM35.6 °F5.0 °F28 %30.28 in30.0 miWSW (240°)10.4 mphPartly Cloudy
7:00 PM33.8 °F8.6 °F35 %30.28 in30.0 miSSW (210°)12.7 mphPartly Cloudy
8:00 PM32.0 °F10.0 °F25 %30.28 in15.0 miSW (220°)4.6 mphScattered Clouds
8:00 PM32.0 °F8.6 °F38 %30.28 in15.0 miWSW (240°)4.6 mphPartly Cloudy
9:00 PM33.8 °F6.8 °F32 %30.28 in15.0 miSouth (190°)2.3 mphOvercast
10:00 PM33.8 °F14.0 °F44 %30.28 in15.0 miSSE (150°)8.1 mphOvercast
11:00 PM32.0 °F14.0 °F48 %30.27 in15.0 miSE (140°)11.5 mphOvercast
Hourly data recorded from CYUL, located miles away from Beaconsfield, Quebec







STORIES FROM OUR PARTNERS